Погода в Могилевке

Россия / Тверская область     57°04′47″N   33°47′17″E
темп.,
°C
ветер,
м/с
пор.,
м/с
влажн.,
%
обл.,
%
осадки,
мм/ч
давл.,
гПа
погр.,
м
16 мая, вс
вс1600:00+10ю28965 0.0 1006171
03:00+9ююз389815 0.0 1007204
06:00+10ююз399630 0.1 1008304
09:00+15юз477645 0.1 1009740
12:00+17зюз466757 0.8 10101260
15:00+19зюз456217 2.1 10101379
18:00+19зюз345642 0.3 10111202
21:00+13ююз228314 0.3 101216
17 мая, пн
пн1700:00+11ю229379 0.0 101322
03:00+11юв119422 0.0 101310
06:00+12вюв2490100 0.0 1014107
09:00+17юв4769100 0.0 1013526
12:00+22юв575136 0.0 10131593
15:00+22вюв565262 0.0 10111431
18:00+22вюв5105963 0.0 10101375
21:00+17в41384100 0.6 1009405
18 мая, вт
вт1800:00+16вюв5149474 0.1 1008443
03:00+15вюв41396100 0.1 1007410
06:00+15вюв41392100 0.0 1006469
09:00+19юв51273100 0.0 1005665
12:00+23ююв61260100 0.0 10051458
15:00+24ююв61260100 0.4 10051788
18:00+19ююв41182100 3.4 1005625
21:00+16юв2596100 6.9 1006142
19 мая, ср
ср1900:00+16зюз0189100 1.4 100611
03:00+15всв2595100 1.4 1005104
06:00+15вюв31097100 0.1 1004322
09:00+19ююв41179100 0.2 1004838
12:00+21ююв587077 1.4 10051331
15:00+20юв5107543 3.3 10051191
18:00+19ююв512737 0.8 10041536
21:00+14юв27953 1.7 1005157
20 мая, чт
чт2000:00+13вюв2598100 0.2 1005110
03:00+13вюв2798100 1.2 1003211
06:00+14юв41097100 0.3 1003675
09:00+16ю468299 0.7 1002885
12:00+16ююв5778100 1.8 10031062
15:00+16ю588297 4.8 10021042
18:00+14юз489164 3.5 1004791
21:00+12юз5119427 4.6 1006744